SWR962 LSZH-EDDB

Flight info

Callsign SWR962
Flight time N/A
Altitude 34000
Route DEGES Z1 ETAGO DCT TIKNI/N0454F350 T279 TAMEB T278 KLF KLF1R
Aircraft A320/M-SDE3FGHIRWY/LB1

Departure

Time N/A
Airport Zürich Airport (LSZH)

Arrival

Time 2026-04-30 21:48
Airport Berlin Brandenburg Airport (EDDB)
Time Latitude Longitude Altitude Speed Heading
2026-04-30 20:41 48.13902 9.46210 33926 ft 398 kts
2026-04-30 20:42 48.16678 9.46202 34162 ft 399 kts
2026-04-30 20:42 48.19466 9.46194 34380 ft 401 kts
2026-04-30 20:42 48.24115 9.46196 34682 ft 403 kts
2026-04-30 20:43 48.27838 9.46202 34864 ft 405 kts
2026-04-30 20:43 48.30664 9.46208 34986 ft 407 kts
2026-04-30 20:43 48.33501 9.46214 35125 ft 409 kts
2026-04-30 20:44 48.38241 9.46215 35313 ft 410 kts
2026-04-30 20:44 48.41099 9.46214 35325 ft 410 kts
2026-04-30 20:45 48.52523 9.46220 35328 ft 410 kts
2026-04-30 20:45 48.58235 9.46196 35328 ft 410 kts
2026-04-30 20:46 48.69662 9.46030 35328 ft 411 kts
2026-04-30 20:47 48.78121 9.47269 35327 ft 407 kts 12°
2026-04-30 20:48 48.86472 9.49268 35335 ft 407 kts 12°
2026-04-30 20:48 48.92100 9.50612 35334 ft 407 kts 12°
2026-04-30 20:49 48.97666 9.51944 35340 ft 407 kts 12°
2026-04-30 20:50 49.06067 9.53960 35349 ft 407 kts 11°
2026-04-30 20:50 49.11662 9.55299 35352 ft 407 kts 12°
2026-04-30 20:51 49.17259 9.56662 35348 ft 407 kts 12°
2026-04-30 20:51 49.25628 9.58684 35347 ft 407 kts 11°
2026-04-30 20:52 49.31232 9.60042 35351 ft 407 kts 12°
2026-04-30 20:53 49.39631 9.62094 35351 ft 407 kts 11°
2026-04-30 20:53 49.45239 9.63467 35351 ft 408 kts 11°
2026-04-30 20:54 49.53663 9.65526 35353 ft 408 kts 11°
2026-04-30 20:55 49.62080 9.67593 35349 ft 408 kts 11°
2026-04-30 20:55 49.67693 9.68966 35358 ft 409 kts 11°
2026-04-30 20:56 49.76124 9.71056 35366 ft 409 kts 11°
2026-04-30 20:57 49.84551 9.73137 35371 ft 409 kts 11°
2026-04-30 20:57 49.90137 9.74528 35371 ft 409 kts 12°
2026-04-30 20:58 49.98574 9.76644 35377 ft 409 kts 11°
2026-04-30 20:58 50.04192 9.78050 35382 ft 409 kts 11°
2026-04-30 20:59 50.12621 9.80158 35392 ft 409 kts 11°
2026-04-30 21:00 50.23863 9.82984 35392 ft 409 kts 11°
2026-04-30 21:01 50.32295 9.85118 35401 ft 409 kts 11°
2026-04-30 21:02 50.40472 9.88591 35402 ft 406 kts 29°
2026-04-30 21:02 50.44942 9.93911 35399 ft 405 kts 46°
2026-04-30 21:03 50.48819 10.00339 35394 ft 406 kts 46°
2026-04-30 21:03 50.52683 10.06767 35394 ft 407 kts 46°
2026-04-30 21:04 50.56570 10.13251 35407 ft 408 kts 46°
2026-04-30 21:04 50.62401 10.23017 35411 ft 408 kts 46°
2026-04-30 21:05 50.66011 10.29915 35411 ft 410 kts 57°
2026-04-30 21:05 50.68749 10.37800 35441 ft 409 kts 59°
2026-04-30 21:06 50.71459 10.45693 35446 ft 409 kts 59°
2026-04-30 21:06 50.74164 10.53582 35446 ft 408 kts 59°
2026-04-30 21:07 50.76860 10.61477 35445 ft 408 kts 59°
2026-04-30 21:07 50.79534 10.69330 35443 ft 408 kts 60°
2026-04-30 21:08 50.82219 10.77237 35442 ft 408 kts 60°
2026-04-30 21:08 50.84905 10.85159 35434 ft 408 kts 60°
2026-04-30 21:09 50.87582 10.93085 35456 ft 408 kts 59°
2026-04-30 21:09 50.90245 11.01009 35454 ft 407 kts 60°
2026-04-30 21:10 50.92893 11.08931 35450 ft 407 kts 60°
2026-04-30 21:10 50.95533 11.16855 35450 ft 406 kts 60°
2026-04-30 21:11 50.98169 11.24784 35447 ft 406 kts 60°
2026-04-30 21:11 51.00806 11.32718 35448 ft 406 kts 60°
2026-04-30 21:12 51.03423 11.40609 35443 ft 406 kts 60°
2026-04-30 21:12 51.06046 11.48556 35467 ft 406 kts 60°
2026-04-30 21:13 51.08650 11.56496 35462 ft 405 kts 60°
2026-04-30 21:13 51.11241 11.64438 35458 ft 404 kts 60°
2026-04-30 21:14 51.13834 11.72371 35453 ft 404 kts 60°
2026-04-30 21:14 51.16423 11.80308 35449 ft 404 kts 60°
2026-04-30 21:15 51.18994 11.88256 35449 ft 403 kts 60°
2026-04-30 21:15 51.21868 11.95899 35417 ft 401 kts 49°
2026-04-30 21:16 51.25669 12.02400 35460 ft 400 kts 45°
2026-04-30 21:16 51.29483 12.08785 35456 ft 399 kts 45°
2026-04-30 21:17 51.33304 12.15233 35455 ft 399 kts 45°
2026-04-30 21:17 51.37113 12.21686 35451 ft 399 kts 45°
2026-04-30 21:18 51.40924 12.28143 35439 ft 399 kts 45°
2026-04-30 21:18 51.44730 12.34614 35440 ft 399 kts 45°
2026-04-30 21:19 51.48536 12.41107 35433 ft 399 kts 45°
2026-04-30 21:19 51.52338 12.47601 35432 ft 399 kts 45°
2026-04-30 21:20 51.56168 12.54159 34474 ft 409 kts 45°
2026-04-30 21:20 51.58085 12.57448 33917 ft 404 kts 45°
2026-04-30 21:20 51.59974 12.60698 33689 ft 392 kts 45°
2026-04-30 21:21 51.61821 12.63878 33239 ft 386 kts 45°
2026-04-30 21:21 51.63640 12.67015 32837 ft 380 kts 45°
2026-04-30 21:21 51.67206 12.73167 31921 ft 371 kts 45°
2026-04-30 21:22 51.68958 12.76196 31445 ft 368 kts 45°
2026-04-30 21:22 51.74099 12.85113 30010 ft 358 kts 46°
2026-04-30 21:23 51.75786 12.88044 29483 ft 355 kts 46°
2026-04-30 21:23 51.77452 12.90966 28964 ft 353 kts 48°
2026-04-30 21:23 51.80098 12.97593 27977 ft 349 kts 56°
2026-04-30 21:24 51.81354 13.00934 27495 ft 347 kts 56°
2026-04-30 21:24 51.82599 13.04256 27018 ft 345 kts 56°
2026-04-30 21:24 51.83836 13.07559 26562 ft 342 kts 56°
2026-04-30 21:24 51.85063 13.10839 26119 ft 340 kts 56°
2026-04-30 21:25 51.87493 13.17341 25243 ft 335 kts 57°
2026-04-30 21:25 51.88693 13.20555 24810 ft 332 kts 57°
2026-04-30 21:25 51.89879 13.23729 24571 ft 324 kts 57°
2026-04-30 21:26 51.92115 13.29744 24353 ft 300 kts 57°
2026-04-30 21:26 51.93167 13.32591 24235 ft 289 kts 57°
2026-04-30 21:27 51.95163 13.37993 23810 ft 273 kts 56°
2026-04-30 21:27 51.96138 13.40619 23411 ft 270 kts 56°
2026-04-30 21:27 51.97104 13.43226 23014 ft 268 kts 56°
2026-04-30 21:28 51.99038 13.48461 21744 ft 267 kts 56°
2026-04-30 21:28 52.00227 13.50678 21204 ft 259 kts 34°
2026-04-30 21:28 52.03693 13.51296 20068 ft 271 kts 342°
2026-04-30 21:29 52.04763 13.50182 19691 ft 283 kts 322°
2026-04-30 21:29 52.08864 13.41556 17697 ft 289 kts 315°
2026-04-30 21:30 52.10863 13.37180 16750 ft 286 kts 314°
2026-04-30 21:31 52.14411 13.29483 15191 ft 281 kts 314°
2026-04-30 21:31 52.16740 13.24450 14207 ft 279 kts 314°
2026-04-30 21:32 52.18371 13.18767 13129 ft 288 kts 276°
2026-04-30 21:32 52.18106 13.15523 12590 ft 291 kts 251°
2026-04-30 21:32 52.17364 13.12454 12042 ft 291 kts 250°
2026-04-30 21:32 52.16613 13.09398 11533 ft 289 kts 250°
2026-04-30 21:33 52.15873 13.06363 11043 ft 286 kts 250°
2026-04-30 21:33 52.14422 13.00398 10318 ft 282 kts 250°
2026-04-30 21:33 52.13699 12.97425 10195 ft 283 kts 250°
2026-04-30 21:34 52.12974 12.94450 10048 ft 282 kts 250°
2026-04-30 21:34 52.11527 12.88530 9791 ft 280 kts 250°
2026-04-30 21:34 52.10806 12.85596 9652 ft 279 kts 249°
2026-04-30 21:35 52.10096 12.82703 9522 ft 278 kts 249°
2026-04-30 21:35 52.09382 12.79787 9391 ft 277 kts 249°
2026-04-30 21:35 52.08670 12.76884 9259 ft 276 kts 249°
2026-04-30 21:35 52.08119 12.73925 9134 ft 272 kts 268°
2026-04-30 21:36 52.08302 12.70933 8996 ft 264 kts 294°
2026-04-30 21:36 52.09186 12.68400 8870 ft 254 kts 318°
2026-04-30 21:37 52.13787 12.65696 8486 ft 233 kts 12°
2026-04-30 21:37 52.15326 12.66414 8360 ft 229 kts 29°
2026-04-30 21:37 52.16639 12.67842 8235 ft 227 kts 44°
2026-04-30 21:37 52.17651 12.69793 8109 ft 226 kts 59°
2026-04-30 21:38 52.18311 12.72122 7988 ft 227 kts 68°
2026-04-30 21:38 52.18896 12.74510 7861 ft 227 kts 67°
2026-04-30 21:38 52.19478 12.76873 7736 ft 220 kts 67°
2026-04-30 21:38 52.20034 12.79131 7607 ft 209 kts 67°
2026-04-30 21:39 52.20567 12.81309 7488 ft 206 kts 67°
2026-04-30 21:39 52.21087 12.83438 7325 ft 204 kts 67°
2026-04-30 21:39 52.21613 12.85584 7023 ft 204 kts 67°
2026-04-30 21:39 52.22136 12.87714 6828 ft 198 kts 68°
2026-04-30 21:40 52.22645 12.89801 6606 ft 194 kts 68°
2026-04-30 21:40 52.23136 12.91820 6310 ft 194 kts 68°
2026-04-30 21:40 52.23635 12.93870 6008 ft 195 kts 68°
2026-04-30 21:40 52.24134 12.95918 5734 ft 193 kts 68°
2026-04-30 21:41 52.24629 12.97954 5355 ft 194 kts 68°
2026-04-30 21:41 52.25127 13.00005 4960 ft 195 kts 68°
2026-04-30 21:41 52.25626 13.02062 4589 ft 195 kts 68°
2026-04-30 21:41 52.26124 13.04117 4230 ft 194 kts 68°
2026-04-30 21:42 52.26617 13.06153 4015 ft 192 kts 68°
2026-04-30 21:42 52.27111 13.08193 4009 ft 194 kts 68°
2026-04-30 21:42 52.27606 13.10240 4008 ft 194 kts 68°
2026-04-30 21:42 52.28103 13.12299 4011 ft 196 kts 68°
2026-04-30 21:43 52.28604 13.14377 4008 ft 197 kts 68°
2026-04-30 21:43 52.29105 13.16456 4009 ft 197 kts 68°
2026-04-30 21:43 52.29607 13.18537 4009 ft 197 kts 68°
2026-04-30 21:43 52.30106 13.20623 3933 ft 198 kts 68°
2026-04-30 21:44 52.30606 13.22738 3535 ft 200 kts 68°
2026-04-30 21:44 52.31108 13.24834 3230 ft 196 kts 68°
2026-04-30 21:44 52.31593 13.26857 2956 ft 184 kts 68°
2026-04-30 21:44 52.32049 13.28758 2714 ft 176 kts 67°
2026-04-30 21:45 52.32492 13.30601 2489 ft 173 kts 67°
2026-04-30 21:45 52.32923 13.32403 2245 ft 165 kts 67°
2026-04-30 21:45 52.33326 13.34083 2059 ft 154 kts 66°
2026-04-30 21:45 52.33711 13.35692 1831 ft 150 kts 66°
2026-04-30 21:46 52.34083 13.37247 1635 ft 148 kts 66°
2026-04-30 21:46 52.34456 13.38807 1432 ft 146 kts 66°
2026-04-30 21:46 52.34825 13.40350 1236 ft 146 kts 66°
2026-04-30 21:46 52.35196 13.41903 1038 ft 146 kts 66°
2026-04-30 21:47 52.35564 13.43446 833 ft 144 kts 66°
2026-04-30 21:47 52.35922 13.44948 654 ft 140 kts 68°
2026-04-30 21:47 52.36274 13.46425 464 ft 139 kts 68°
2026-04-30 21:47 52.36623 13.47893 284 ft 138 kts 68°
2026-04-30 21:48 52.36969 13.49343 156 ft 128 kts 69°
2026-04-30 21:48 52.37189 13.50280 155 ft 45 kts 69°
2026-04-30 21:48 52.37287 13.50686 155 ft 34 kts 68°
2026-04-30 21:48 52.37306 13.50994 155 ft 26 kts 96°
2026-04-30 21:49 52.37286 13.51218 155 ft 10 kts 99°
2026-04-30 21:49 52.37270 13.51316 155 ft 6 kts 111°
2026-04-30 21:49 52.37260 13.51356 155 ft 3 kts 113°
2026-04-30 21:49 52.37252 13.51376 155 ft 2 kts 127°
2026-04-30 21:50 52.37245 13.51385 155 ft 1 kts 144°
2026-04-30 21:50 52.37244 13.51385 155 ft 0 kts 150°
2026-04-30 21:50 52.37205 13.51332 155 ft 15 kts 249°
2026-04-30 21:51 52.37163 13.51162 155 ft 16 kts 248°
2026-04-30 21:51 52.37122 13.50988 155 ft 17 kts 249°
2026-04-30 21:51 52.37078 13.50801 155 ft 18 kts 249°
2026-04-30 21:51 52.37029 13.50597 155 ft 20 kts 249°
2026-04-30 21:52 52.36977 13.50375 155 ft 22 kts 249°
2026-04-30 21:52 52.36935 13.50197 155 ft 8 kts 248°
2026-04-30 21:52 52.36903 13.50130 154 ft 7 kts 209°
2026-04-30 21:52 52.36862 13.50136 158 ft 6 kts 160°
2026-04-30 21:53 52.36829 13.50156 154 ft 6 kts 159°
2026-04-30 21:53 52.36796 13.50177 154 ft 4 kts 159°
2026-04-30 21:53 52.36765 13.50196 154 ft 9 kts 161°
2026-04-30 21:53 52.36708 13.50163 154 ft 8 kts 189°
2026-04-30 21:54 52.36658 13.50183 154 ft 7 kts 160°
2026-04-30 21:54 52.36614 13.50211 154 ft 11 kts 158°
2026-04-30 21:54 52.36516 13.50274 154 ft 16 kts 158°
2026-04-30 21:54 52.36414 13.50339 154 ft 16 kts 159°
2026-04-30 21:55 52.36316 13.50402 154 ft 12 kts 158°
2026-04-30 21:55 52.36261 13.50437 154 ft 7 kts 159°
2026-04-30 21:55 52.36246 13.50491 154 ft 5 kts 87°
2026-04-30 21:55 52.36230 13.50526 154 ft 3 kts 137°
2026-04-30 21:56 52.36221 13.50548 154 ft 1 kts 101°
2026-04-30 21:56 52.36219 13.50559 154 ft 1 kts 100°
2026-04-30 21:56 52.36232 13.50617 154 ft 8 kts 68°
2026-04-30 21:56 52.36246 13.50678 155 ft 1 kts 69°
2026-04-30 22:00 52.36246 13.50679 155 ft 0 kts 69°